Location: Falniów
(50.3639°N, 19.9642°E)
Time: 22:12:39
(UTC+00:00)

Cosmos 2263 Rocket - Pass Details

Date: 18 January 2026
Orbit: 821 x 849 km, 71.0° (Epoch: 17 February)

Event Time Altitude Azimuth Distance (km) Brightness Sun altitude
Exits shadow 05:44:25 - 331° (NNW) 3,232 4.8 -7.5°
Reaches altitude 10° 05:48:23 10° 2° (N) 2,485 4.4 -6.9°
Maximum altitude 05:50:01 11° 18° (NNE) 2,403 4.5 -6.7°
Drops below altitude 10° 05:51:39 10° 35° (NE) 2,484 4.8 -6.5°
Sets 05:56:19 0° 70° (ENE) 3,417 6.1 -5.8°
